| time (UTC) | temp C | wind direction | speed KPH | gust KPH | rain 1hr cm | rain 24hr cm | rain mn cm | humidity % | barometer mb |
| 20260506182146 | 12 | 224 | 8.0 | 25.7 | 0.00 | 0.00 | 0.00 | 88 | 1006.0 |
| 20260506181647 | 12 | 184 | 8.0 | 19.3 | 0.00 | 0.00 | 0.00 | 88 | 1006.1 |
| 20260506181145 | 12 | 183 | 8.0 | 20.9 | 0.00 | 0.00 | 0.00 | 87 | 1006.1 |
| 20260506180643 | 12 | 186 | 9.7 | 24.1 | 0.00 | 0.00 | 0.00 | 87 | 1006.1 |
| 20260506180143 | 12 | 175 | 9.7 | 24.1 | 0.00 | 0.00 | 0.00 | 87 | 1006.2 |
| 20260506175644 | 12 | 169 | 9.7 | 24.1 | 0.00 | 0.00 | 0.00 | 87 | 1006.2 |
| 20260506175142 | 12 | 209 | 9.7 | 24.1 | 0.00 | 0.00 | 0.00 | 87 | 1006.3 |
| 20260506174852 | 12 | 173 | 11.3 | 25.7 | 0.00 | 0.00 | 0.00 | 88 | 1006.3 |
| 20260506174130 | 12 | 202 | 9.7 | 27.4 | 0.00 | 0.00 | 0.00 | 88 | 1006.2 |
| 20260506173624 | 12 | 181 | 6.4 | 27.4 | 0.00 | 0.00 | 0.00 | 88 | 1006.2 |
| 20260506173600 | 11 | 178 | 8.0 | 19.3 | 0.00 | 0.00 | 0.00 | 88 | 1006.3 |
| 20260506172612 | 11 | 203 | 9.7 | 19.3 | 0.00 | 0.00 | 0.00 | 88 | 1006.4 |
| 20260506172105 | 11 | 193 | 8.0 | 22.5 | 0.00 | 0.00 | 0.00 | 88 | 1006.5 |
| 20260506171600 | 11 | 202 | 8.0 | 22.5 | 0.00 | 0.00 | 0.00 | 88 | 1006.6 |
| 20260506171052 | 11 | 180 | 8.0 | 24.1 | 0.00 | 0.00 | 0.00 | 88 | 1006.6 |
| 20260506170547 | 11 | 207 | 8.0 | 24.1 | 0.00 | 0.00 | 0.00 | 88 | 1006.8 |
| 20260506170040 | 11 | 186 | 8.0 | 19.3 | 0.00 | 0.00 | 0.00 | 88 | 1006.8 |
| 20260506165535 | 11 | 176 | 8.0 | 19.3 | 0.00 | 0.00 | 0.00 | 88 | 1007.0 |
| 20260506165035 | 11 | 195 | 9.7 | 17.7 | 0.00 | 0.00 | 0.00 | 88 | 1007.1 |
| 20260506164536 | 11 | 210 | 9.7 | 24.1 | 0.00 | 0.00 | 0.00 | 88 | 1007.2 |
| 20260506164035 | 11 | 164 | 9.7 | 24.1 | 0.00 | 0.00 | 0.00 | 88 | 1007.2 |
| 20260506163534 | 12 | 176 | 8.0 | 20.9 | 0.00 | 0.00 | 0.00 | 87 | 1007.3 |
| 20260506163035 | 12 | 221 | 8.0 | 20.9 | 0.00 | 0.00 | 0.00 | 87 | 1007.5 |
| 20260506162533 | 12 | 184 | 6.4 | 19.3 | 0.00 | 0.00 | 0.00 | 88 | 1007.5 |
| 20260506162259 | 12 | 184 | 8.0 | 19.3 | 0.00 | 0.00 | 0.00 | 87 | 1007.7 |
| 20260506161533 | 12 | 188 | 8.0 | 19.3 | 0.00 | 0.00 | 0.00 | 87 | 1007.8 |
| 20260506161034 | 12 | 237 | 9.7 | 19.3 | 0.00 | 0.00 | 0.00 | 87 | 1007.8 |
| 20260506160533 | 12 | 148 | 9.7 | 19.3 | 0.00 | 0.00 | 0.00 | 87 | 1007.9 |
| 20260506160033 | 12 | 171 | 8.0 | 24.1 | 0.00 | 0.00 | 0.00 | 87 | 1008.0 |
| 20260506155533 | 12 | 184 | 9.7 | 24.1 | 0.00 | 0.00 | 0.00 | 89 | 1008.1 |
| 20260506155032 | 11 | 138 | 9.7 | 24.1 | 0.00 | 0.00 | 0.00 | 88 | 1008.1 |
| 20260506154535 | 11 | 207 | 11.3 | 24.1 | 0.00 | 0.00 | 0.00 | 89 | 1008.1 |
| 20260506154033 | 11 | 181 | 9.7 | 20.9 | 0.00 | 0.00 | 0.00 | 88 | 1008.0 |
| 20260506153532 | 11 | 173 | 11.3 | 29.0 | 0.00 | 0.00 | 0.00 | 88 | 1008.0 |
| 20260506153249 | 12 | 182 | 9.7 | 29.0 | 0.00 | 0.00 | 0.00 | 87 | 1008.2 |
| 20260506152521 | 12 | 190 | 8.0 | 22.5 | 0.00 | 0.00 | 0.00 | 87 | 1008.4 |
| 20260506152015 | 12 | 197 | 9.7 | 22.5 | 0.00 | 0.00 | 0.00 | 87 | 1008.3 |
| 20260506151734 | 12 | 167 | 9.7 | 25.7 | 0.00 | 0.00 | 0.00 | 87 | 1008.1 |
| 20260506151002 | 12 | 206 | 9.7 | 30.6 | 0.00 | 0.00 | 0.00 | 87 | 1008.0 |
| 20260506150459 | 12 | 172 | 9.7 | 30.6 | 0.00 | 0.00 | 0.00 | 86 | 1008.1 |
| 20260506145959 | 12 | 222 | 8.0 | 20.9 | 0.00 | 0.00 | 0.00 | 86 | 1008.1 |
| 20260506145725 | 13 | 192 | 9.7 | 22.5 | 0.00 | 0.00 | 0.00 | 87 | 1007.9 |
| 20260506145001 | 12 | 242 | 11.3 | 38.6 | 0.00 | 0.00 | 0.00 | 87 | 1007.9 |
| 20260506144457 | 12 | 180 | 11.3 | 38.6 | 0.00 | 0.00 | 0.00 | 88 | 1007.7 |
| 20260506143959 | 12 | 306 | 11.3 | 27.4 | 0.00 | 0.00 | 0.00 | 88 | 1007.8 |
| 20260506143455 | 12 | 178 | 9.7 | 24.1 | 0.00 | 0.00 | 0.00 | 88 | 1007.8 |
| 20260506143215 | 12 | 182 | 8.0 | 22.5 | 0.00 | 0.00 | 0.00 | 88 | 1007.8 |
| 20260506142455 | 12 | 225 | 9.7 | 22.5 | 0.00 | 0.00 | 0.00 | 88 | 1007.9 |
| 20260506141955 | 12 | 222 | 8.0 | 20.9 | 0.00 | 0.00 | 0.00 | 89 | 1008.0 |
| 20260506141723 | 12 | 231 | 6.4 | 20.9 | 0.00 | 0.00 | 0.00 | 89 | 1008.1 |
| 20260506140955 | 12 | 198 | 4.8 | 17.7 | 0.00 | 0.00 | 0.00 | 89 | 1008.2 |
| 20260506140455 | 12 | 239 | 4.8 | 14.5 | 0.00 | 0.00 | 0.00 | 89 | 1008.3 |
| 20260506135955 | 12 | 164 | 6.4 | 19.3 | 0.00 | 0.00 | 0.00 | 89 | 1008.3 |
| 20260506135454 | 11 | 211 | 6.4 | 20.9 | 0.00 | 0.00 | 0.00 | 89 | 1008.4 |
| 20260506134955 | 11 | 203 | 6.4 | 20.9 | 0.00 | 0.00 | 0.00 | 89 | 1008.4 |
| 20260506134455 | 11 | 217 | 6.4 | 24.1 | 0.00 | 0.00 | 0.00 | 90 | 1008.4 |
| 20260506133948 | 11 | 196 | 8.0 | 24.1 | 0.00 | 0.00 | 0.00 | 90 | 1008.4 |
| 20260506133442 | 11 | 236 | 8.0 | 24.1 | 0.00 | 0.00 | 0.00 | 89 | 1008.4 |
| 20260506132936 | 11 | 194 | 8.0 | 24.1 | 0.00 | 0.00 | 0.00 | 89 | 1008.3 |
| 20260506132430 | 11 | 192 | 8.0 | 19.3 | 0.00 | 0.00 | 0.00 | 89 | 1008.3 |
| 20260506132148 | 11 | 152 | 8.0 | 19.3 | 0.00 | 0.00 | 0.00 | 89 | 1008.3 |
| 20260506131418 | 11 | 217 | 8.0 | 17.7 | 0.00 | 0.00 | 0.00 | 89 | 1008.2 |
| 20260506130912 | 11 | 217 | 9.7 | 30.6 | 0.00 | 0.00 | 0.00 | 90 | 1008.2 |
| 20260506130406 | 11 | 180 | 9.7 | 30.6 | 0.00 | 0.00 | 0.00 | 89 | 1008.1 |
| 20260506125900 | 11 | 225 | 9.7 | 25.7 | 0.00 | 0.00 | 0.00 | 90 | 1008.2 |
| 20260506125355 | 11 | 236 | 9.7 | 25.7 | 0.00 | 0.00 | 0.00 | 89 | 1008.2 |
| 20260506125112 | 11 | 206 | 8.0 | 20.9 | 0.00 | 0.00 | 0.00 | 89 | 1008.2 |
| 20260506124342 | 11 | 167 | 8.0 | 19.3 | 0.00 | 0.00 | 0.00 | 89 | 1008.2 |
| 20260506123836 | 11 | 194 | 8.0 | 19.3 | 0.00 | 0.00 | 0.00 | 89 | 1008.1 |
| 20260506123331 | 11 | 156 | 8.0 | 24.1 | 0.00 | 0.00 | 0.00 | 90 | 1008.1 |
| 20260506122824 | 11 | 221 | 9.7 | 24.1 | 0.00 | 0.00 | 0.00 | 90 | 1008.1 |
| 20260506122319 | 11 | 204 | 8.0 | 20.9 | 0.00 | 0.00 | 0.00 | 90 | 1008.4 |
| 20260506122035 | 11 | 173 | 8.0 | 19.3 | 0.00 | 0.00 | 0.00 | 90 | 1008.4 |
| 20260506121306 | 11 | 210 | 8.0 | 19.3 | 0.00 | 0.00 | 0.00 | 90 | 1008.4 |
| 20260506121025 | 11 | 203 | 8.0 | 17.7 | 0.00 | 0.00 | 0.00 | 90 | 1008.5 |
| 20260506120522 | 11 | 223 | 8.0 | 17.7 | 0.00 | 0.00 | 0.00 | 90 | 1008.4 |
| 20260506115805 | 11 | 200 | 6.4 | 20.9 | 0.00 | 0.00 | 0.00 | 90 | 1008.4 |
| 20260506115307 | 11 | 198 | 6.4 | 20.9 | 0.00 | 0.00 | 0.00 | 91 | 1008.6 |
| 20260506115024 | 11 | 191 | 6.4 | 22.5 | 0.00 | 0.00 | 0.00 | 91 | 1008.6 |
| 20260506114305 | 11 | 194 | 6.4 | 22.5 | 0.00 | 0.00 | 0.00 | 90 | 1008.6 |
| 20260506113805 | 11 | 199 | 6.4 | 20.9 | 0.00 | 0.00 | 0.00 | 90 | 1008.7 |
| 20260506113749 | 11 | 203 | 6.4 | 16.1 | 0.00 | 0.00 | 0.00 | 90 | 1008.8 |
| 20260506112803 | 11 | 173 | 6.4 | 20.9 | 0.00 | 0.00 | 0.00 | 90 | 1008.7 |
| 20260506112305 | 11 | 200 | 6.4 | 20.9 | 0.00 | 0.00 | 0.00 | 90 | 1008.6 |
| 20260506111802 | 11 | 153 | 6.4 | 19.3 | 0.00 | 0.00 | 0.00 | 90 | 1008.6 |
| 20260506111748 | 11 | 200 | 6.4 | 19.3 | 0.00 | 0.00 | 0.00 | 91 | 1008.4 |
| 20260506110803 | 10 | 196 | 6.4 | 19.3 | 0.00 | 0.00 | 0.00 | 91 | 1008.5 |
| 20260506110257 | 10 | 213 | 6.4 | 19.3 | 0.00 | 0.00 | 0.00 | 91 | 1008.5 |
| 20260506110014 | 10 | 208 | 4.8 | 16.1 | 0.00 | 0.00 | 0.00 | 91 | 1008.5 |
| 20260506105244 | 10 | 229 | 3.2 | 12.9 | 0.00 | 0.00 | 0.00 | 91 | 1008.6 |
| 20260506104740 | 10 | 205 | 6.4 | 14.5 | 0.00 | 0.00 | 0.00 | 91 | 1008.6 |
| 20260506104233 | 10 | 202 | 6.4 | 19.3 | 0.00 | 0.00 | 0.00 | 91 | 1008.5 |
| 20260506103726 | 10 | 244 | 6.4 | 19.3 | 0.00 | 0.00 | 0.00 | 91 | 1008.5 |
| 20260506103220 | 10 | 184 | 8.0 | 20.9 | 0.00 | 0.00 | 0.00 | 91 | 1008.5 |
| 20260506102715 | 10 | 219 | 6.4 | 20.9 | 0.00 | 0.00 | 0.00 | 91 | 1008.6 |
| 20260506102434 | 10 | 203 | 6.4 | 19.3 | 0.00 | 0.00 | 0.00 | 91 | 1008.6 |
| 20260506101703 | 10 | 188 | 6.4 | 19.3 | 0.00 | 0.00 | 0.00 | 91 | 1008.5 |
| 20260506101156 | 10 | 202 | 6.4 | 14.5 | 0.00 | 0.00 | 0.00 | 91 | 1008.2 |
| 20260506100651 | 10 | 182 | 6.4 | 14.5 | 0.00 | 0.00 | 0.00 | 91 | 1008.3 |
| 20260506100144 | 10 | 200 | 6.4 | 17.7 | 0.00 | 0.00 | 0.00 | 91 | 1008.3 |
| 20260506095638 | 10 | 197 | 4.8 | 17.7 | 0.00 | 0.00 | 0.00 | 91 | 1008.5 |
| 20260506095356 | 10 | 172 | 4.8 | 16.1 | 0.00 | 0.00 | 0.00 | 91 | 1008.4 |
| 20260506094626 | 10 | 217 | 4.8 | 22.5 | 0.00 | 0.00 | 0.00 | 91 | 1008.4 |
| 20260506094342 | 10 | 208 | 4.8 | 22.5 | 0.00 | 0.00 | 0.00 | 91 | 1008.3 |
| 20260506093615 | 10 | 198 | 3.2 | 12.9 | 0.00 | 0.00 | 0.00 | 91 | 1008.3 |
| 20260506093332 | 10 | 215 | 3.2 | 12.9 | 0.00 | 0.00 | 0.00 | 91 | 1008.3 |
| 20260506092823 | 10 | 232 | 4.8 | 16.1 | 0.00 | 0.00 | 0.00 | 91 | 1008.3 |
| 20260506092056 | 10 | 257 | 4.8 | 16.1 | 0.00 | 0.00 | 0.00 | 90 | 1008.3 |
| 20260506091551 | 10 | 221 | 4.8 | 14.5 | 0.00 | 0.00 | 0.00 | 91 | 1008.3 |
| 20260506091044 | 10 | 216 | 4.8 | 17.7 | 0.00 | 0.00 | 0.00 | 91 | 1008.2 |
| 20260506090803 | 10 | 207 | 6.4 | 17.7 | 0.00 | 0.00 | 0.00 | 91 | 1008.3 |
| 20260506090033 | 10 | 205 | 6.4 | 14.5 | 0.00 | 0.00 | 0.00 | 91 | 1008.3 |
| 20260506085526 | 10 | 166 | 4.8 | 14.5 | 0.00 | 0.00 | 0.00 | 90 | 1008.3 |
| 20260506085021 | 10 | 171 | 4.8 | 14.5 | 0.00 | 0.00 | 0.00 | 90 | 1008.2 |
| 20260506084739 | 10 | 217 | 4.8 | 11.3 | 0.00 | 0.00 | 0.00 | 90 | 1008.2 |
| 20260506084008 | 10 | 180 | 6.4 | 22.5 | 0.00 | 0.00 | 0.00 | 90 | 1008.2 |
| 20260506083502 | 10 | 178 | 6.4 | 22.5 | 0.00 | 0.00 | 0.00 | 90 | 1008.1 |
| 20260506082956 | 10 | 190 | 4.8 | 16.1 | 0.00 | 0.00 | 0.00 | 90 | 1008.2 |
| 20260506082450 | 10 | 223 | 4.8 | 16.1 | 0.00 | 0.00 | 0.00 | 90 | 1008.1 |
| 20260506081944 | 10 | 182 | 4.8 | 14.5 | 0.00 | 0.00 | 0.00 | 89 | 1008.2 |
| 20260506081438 | 10 | 176 | 4.8 | 14.5 | 0.00 | 0.00 | 0.00 | 90 | 1008.3 |
| 20260506080932 | 10 | 217 | 4.8 | 12.9 | 0.00 | 0.00 | 0.00 | 89 | 1008.2 |
| 20260506080427 | 10 | 199 | 3.2 | 11.3 | 0.00 | 0.00 | 0.00 | 89 | 1008.3 |
| 20260506072844 | 10 | 208 | 4.8 | 17.7 | 0.00 | 0.00 | 0.00 | 88 | 1008.0 |
| 20260506072338 | 10 | 197 | 6.4 | 17.7 | 0.00 | 0.00 | 0.00 | 88 | 1007.9 |
| 20260506072059 | 10 | 193 | 4.8 | 17.7 | 0.00 | 0.00 | 0.00 | 88 | 1007.9 |
| 20260506071553 | 10 | 167 | 4.8 | 20.9 | 0.00 | 0.00 | 0.00 | 88 | 1007.9 |
| 20260506071308 | 10 | 233 | 6.4 | 20.9 | 0.00 | 0.00 | 0.00 | 88 | 1007.8 |
| 20260506070322 | 10 | 200 | 4.8 | 16.1 | 0.00 | 0.00 | 0.00 | 88 | 1007.7 |
| 20260506062319 | 11 | 221 | 8.0 | 20.9 | 0.00 | 0.00 | 0.00 | 87 | 1007.7 |
| 20260506062038 | 11 | 191 | 8.0 | 19.3 | 0.00 | 0.00 | 0.00 | 87 | 1007.7 |
| 20260506061318 | 11 | 195 | 8.0 | 20.9 | 0.00 | 0.00 | 0.00 | 87 | 1007.6 |
| 20260506060817 | 10 | 168 | 8.0 | 20.9 | 0.00 | 0.00 | 0.00 | 87 | 1007.6 |
| 20260506060316 | 10 | 196 | 4.8 | 17.7 | 0.00 | 0.00 | 0.00 | 87 | 1007.5 |
| 20260506051252 | 10 | 210 | 6.4 | 19.3 | 0.00 | 0.00 | 0.00 | 87 | 1007.7 |
| 20260506050751 | 10 | 167 | 4.8 | 16.1 | 0.00 | 0.00 | 0.00 | 87 | 1007.7 |
| 20260506050250 | 10 | 246 | 4.8 | 22.5 | 0.00 | 0.00 | 0.00 | 87 | 1007.7 |
| 20260506044750 | 11 | 241 | 8.0 | 19.3 | 0.00 | 0.00 | 0.00 | 86 | 1007.9 |
| 20260506044521 | 11 | 193 | 6.4 | 22.5 | 0.00 | 0.00 | 0.00 | 86 | 1007.8 |
| 20260506043750 | 11 | 210 | 8.0 | 22.5 | 0.00 | 0.00 | 0.00 | 85 | 1007.7 |
| 20260506043736 | 11 | 253 | 6.4 | 19.3 | 0.00 | 0.00 | 0.00 | 85 | 1007.7 |
| 20260506042748 | 11 | 234 | 8.0 | 19.3 | 0.00 | 0.00 | 0.00 | 86 | 1007.7 |
| 20260506042246 | 11 | 200 | 9.7 | 25.7 | 0.00 | 0.00 | 0.00 | 86 | 1007.6 |
| 20260506041746 | 11 | 210 | 8.0 | 25.7 | 0.00 | 0.00 | 0.00 | 86 | 1007.6 |
| 20260506041247 | 11 | 181 | 6.4 | 24.1 | 0.00 | 0.00 | 0.00 | 85 | 1007.6 |
| 20260506040745 | 11 | 175 | 4.8 | 16.1 | 0.00 | 0.00 | 0.00 | 86 | 1007.6 |
| 20260506040244 | 11 | 192 | 6.4 | 16.1 | 0.00 | 0.00 | 0.00 | 86 | 1007.5 |
| 20260506040004 | 11 | 231 | 4.8 | 16.1 | 0.00 | 0.00 | 0.00 | 86 | 1007.6 |
| 20260506035504 | 11 | 209 | 4.8 | 19.3 | 0.00 | 0.00 | 0.00 | 86 | 1007.6 |
| 20260506034739 | 11 | 180 | 4.8 | 19.3 | 0.00 | 0.00 | 0.00 | 86 | 1007.6 |
| 20260506034237 | 11 | 205 | 4.8 | 14.5 | 0.00 | 0.00 | 0.00 | 86 | 1007.5 |
| 20260506033735 | 11 | 177 | 6.4 | 16.1 | 0.00 | 0.00 | 0.00 | 86 | 1007.5 |
| 20260506033236 | 11 | 187 | 8.0 | 17.7 | 0.00 | 0.00 | 0.00 | 85 | 1007.6 |
| 20260506032734 | 11 | 168 | 6.4 | 17.7 | 0.00 | 0.00 | 0.00 | 85 | 1007.6 |
| 20260506032234 | 11 | 203 | 4.8 | 14.5 | 0.00 | 0.00 | 0.00 | 85 | 1007.5 |
| 20260506031952 | 11 | 161 | 3.2 | 11.3 | 0.00 | 0.00 | 0.00 | 85 | 1007.4 |
| 20260506031232 | 11 | 166 | 3.2 | 12.9 | 0.00 | 0.00 | 0.00 | 85 | 1007.4 |
| 20260506030955 | 11 | 183 | 3.2 | 12.9 | 0.00 | 0.00 | 0.00 | 85 | 1007.5 |
| 20260506030230 | 11 | 177 | 3.2 | 11.3 | 0.00 | 0.00 | 0.00 | 85 | 1007.7 |
| 20260506025730 | 11 | 158 | 3.2 | 11.3 | 0.00 | 0.00 | 0.00 | 85 | 1007.7 |
| 20260506025230 | 11 | 175 | 3.2 | 9.7 | 0.00 | 0.00 | 0.00 | 84 | 1007.8 |
| 20260506024731 | 11 | 177 | 4.8 | 12.9 | 0.00 | 0.00 | 0.00 | 84 | 1007.6 |
| 20260506024231 | 11 | 183 | 4.8 | 17.7 | 0.00 | 0.00 | 0.00 | 83 | 1007.7 |
| 20260506023730 | 12 | 219 | 4.8 | 17.7 | 0.00 | 0.00 | 0.00 | 83 | 1007.7 |
| 20260506023230 | 12 | 230 | 4.8 | 11.3 | 0.00 | 0.00 | 0.00 | 82 | 1007.5 |
| 20260506022728 | 12 | 199 | 4.8 | 11.3 | 0.00 | 0.00 | 0.00 | 81 | 1007.6 |
| 20260506022229 | 12 | 165 | 4.8 | 11.3 | 0.00 | 0.00 | 0.00 | 81 | 1007.7 |
| 20260506021722 | 12 | 201 | 4.8 | 11.3 | 0.00 | 0.00 | 0.00 | 80 | 1007.7 |
| 20260506021436 | 13 | 196 | 4.8 | 11.3 | 0.00 | 0.00 | 0.00 | 79 | 1007.7 |
| 20260506020712 | 13 | 135 | 6.4 | 14.5 | 0.00 | 0.00 | 0.00 | 79 | 1007.8 |
| 20260506020432 | 13 | 185 | 6.4 | 16.1 | 0.00 | 0.00 | 0.00 | 78 | 1007.7 |
| 20260506015658 | 13 | 205 | 6.4 | 16.1 | 0.00 | 0.00 | 0.00 | 78 | 1007.8 |
| 20260506015151 | 13 | 180 | 4.8 | 14.5 | 0.00 | 0.00 | 0.00 | 78 | 1007.8 |
| 20260506014645 | 13 | 186 | 4.8 | 17.7 | 0.00 | 0.00 | 0.00 | 78 | 1007.9 |
| 20260506014139 | 13 | 186 | 3.2 | 17.7 | 0.00 | 0.00 | 0.00 | 78 | 1007.8 |
| 20260506013632 | 13 | 186 | 1.6 | 9.7 | 0.00 | 0.00 | 0.00 | 78 | 1007.8 |
| 20260506013126 | 13 | 181 | 1.6 | 9.7 | 0.00 | 0.00 | 0.00 | 78 | 1007.8 |
| 20260506012621 | 13 | 221 | 0.0 | 9.7 | 0.00 | 0.00 | 0.00 | 78 | 1007.7 |
| 20260506012120 | 13 | 168 | 3.2 | 11.3 | 0.00 | 0.00 | 0.00 | 77 | 1007.6 |
| 20260506011608 | 13 | 168 | 6.4 | 16.1 | 0.00 | 0.00 | 0.00 | 77 | 1007.5 |
| 20260506011550 | 13 | 135 | 4.8 | 16.1 | 0.00 | 0.00 | 0.00 | 76 | 1007.5 |
| 20260506010606 | 14 | 176 | 6.4 | 19.3 | 0.00 | 0.00 | 0.00 | 76 | 1007.4 |
| 20260506010103 | 14 | 166 | 6.4 | 19.3 | 0.00 | 0.00 | 0.00 | 76 | 1007.4 |
| 20260506005602 | 14 | 207 | 4.8 | 12.9 | 0.00 | 0.00 | 0.00 | 75 | 1007.3 |
| 20260506005321 | 15 | 157 | 4.8 | 12.9 | 0.00 | 0.00 | 0.00 | 74 | 1007.4 |
| 20260506004602 | 15 | 244 | 4.8 | 12.9 | 0.00 | 0.00 | 0.00 | 74 | 1007.4 |
| 20260506004102 | 15 | 261 | 4.8 | 17.7 | 0.00 | 0.00 | 0.00 | 73 | 1007.4 |
| 20260506003600 | 15 | 242 | 4.8 | 20.9 | 0.00 | 0.00 | 0.00 | 73 | 1007.3 |
| 20260506003100 | 15 | 178 | 4.8 | 20.9 | 0.00 | 0.00 | 0.00 | 72 | 1007.3 |
| 20260506002600 | 15 | 224 | 4.8 | 17.7 | 0.00 | 0.00 | 0.00 | 72 | 1007.1 |
| 20260506002100 | 15 | 175 | 4.8 | 17.7 | 0.00 | 0.00 | 0.00 | 72 | 1006.9 |
| 20260506001600 | 16 | 171 | 6.4 | 17.7 | 0.00 | 0.00 | 0.00 | 71 | 1006.9 |
| 20260506001058 | 16 | 150 | 8.0 | 19.3 | 0.00 | 0.00 | 0.00 | 70 | 1006.7 |
| 20260506000557 | 16 | 159 | 8.0 | 19.3 | 0.00 | 0.00 | 0.00 | 70 | 1006.4 |
| 20260506000100 | 16 | 209 | 6.4 | 16.1 | 0.00 | 0.00 | 0.00 | 69 | 1006.2 |
| 20260505235558 | 17 | 197 | 6.4 | 20.9 | 0.00 | 0.00 | 0.00 | 68 | 1006.1 |
| 20260505235058 | 17 | 186 | 8.0 | 22.5 | 0.00 | 0.00 | 0.00 | 67 | 1006.1 |
| 20260505234559 | 17 | 198 | 4.8 | 22.5 | 0.00 | 0.00 | 0.00 | 68 | 1006.2 |
| 20260505234052 | 17 | 171 | 0.0 | 8.0 | 0.00 | 0.00 | 0.00 | 69 | 1006.2 |
| 20260505233806 | 17 | 260 | 1.6 | 14.5 | 0.00 | 0.00 | 0.00 | 69 | 1006.0 |
| 20260505233039 | 17 | 260 | 6.4 | 32.2 | 0.00 | 0.00 | 0.00 | 69 | 1005.9 |
| 20260505232533 | 17 | 236 | 9.7 | 32.2 | 0.00 | 0.00 | 0.00 | 71 | 1006.2 |
| 20260505232228 | 15 | 252 | 14.5 | 40.2 | 0.00 | 0.00 | 0.00 | 77 | 1005.8 |
| 20260505232114 | 16 | 274 | 12.9 | 40.2 | 0.00 | 0.00 | 0.00 | 73 | 1005.9 |
| 20260505231015 | 13 | 19 | 12.9 | 27.4 | 0.00 | 0.00 | 0.00 | 80 | 1006.6 |
| 20260505230509 | 12 | 236 | 11.3 | 24.1 | 0.00 | 0.00 | 0.00 | 80 | 1005.5 |
| 20260505230004 | 12 | 192 | 9.7 | 25.7 | 0.00 | 0.00 | 0.00 | 80 | 1004.9 |
| 20260505225718 | 12 | 194 | 9.7 | 33.8 | 0.00 | 0.00 | 0.00 | 80 | 1004.6 |
| 20260505224951 | 12 | 155 | 11.3 | 32.2 | 0.00 | 0.00 | 0.00 | 80 | 1004.5 |
| 20260505224445 | 12 | 211 | 11.3 | 33.8 | 0.00 | 0.00 | 0.00 | 80 | 1004.4 |
| 20260505223939 | 13 | 181 | 9.7 | 32.2 | 0.00 | 0.00 | 0.00 | 80 | 1004.3 |
| 20260505223433 | 13 | 235 | 11.3 | 24.1 | 0.00 | 0.00 | 0.00 | 79 | 1004.3 |
| 20260505222927 | 13 | 203 | 11.3 | 30.6 | 0.00 | 0.00 | 0.00 | 79 | 1004.2 |
| 20260505222421 | 13 | 212 | 11.3 | 30.6 | 0.00 | 0.00 | 0.00 | 78 | 1004.2 |
| 20260505221916 | 13 | 273 | 11.3 | 29.0 | 0.00 | 0.00 | 0.00 | 78 | 1004.2 |
| 20260505221634 | 13 | 261 | 9.7 | 29.0 | 0.00 | 0.00 | 0.00 | 78 | 1004.1 |
| 20260505220903 | 13 | 190 | 11.3 | 32.2 | 0.00 | 0.00 | 0.00 | 78 | 1003.8 |
| 20260505220844 | 13 | 144 | 12.9 | 32.2 | 0.00 | 0.00 | 0.00 | 78 | 1003.8 |
| 20260505215852 | 13 | 173 | 12.9 | 30.6 | 0.00 | 0.00 | 0.00 | 78 | 1003.9 |
| 20260505215345 | 13 | 242 | 11.3 | 35.4 | 0.00 | 0.00 | 0.00 | 78 | 1003.9 |
| 20260505214841 | 13 | 207 | 9.7 | 35.4 | 0.00 | 0.00 | 0.00 | 78 | 1004.0 |
| 20260505214333 | 13 | 277 | 11.3 | 25.7 | 0.00 | 0.00 | 0.00 | 78 | 1003.9 |
| 20260505213828 | 14 | 248 | 9.7 | 25.7 | 0.00 | 0.00 | 0.00 | 77 | 1004.1 |
| 20260505213321 | 14 | 220 | 9.7 | 25.7 | 0.00 | 0.00 | 0.00 | 77 | 1003.9 |
| 20260505212815 | 14 | 260 | 9.7 | 24.1 | 0.00 | 0.00 | 0.00 | 77 | 1003.7 |
| 20260505212528 | 14 | 215 | 9.7 | 24.1 | 0.00 | 0.00 | 0.00 | 78 | 1003.7 |
| 20260505211803 | 13 | 228 | 9.7 | 35.4 | 0.00 | 0.00 | 0.00 | 78 | 1003.6 |
| 20260505211258 | 13 | 192 | 12.9 | 35.4 | 0.00 | 0.00 | 0.00 | 78 | 1003.7 |
| 20260505210752 | 14 | 202 | 14.5 | 38.6 | 0.00 | 0.00 | 0.00 | 77 | 1003.8 |
| 20260505210245 | 14 | 175 | 12.9 | 38.6 | 0.00 | 0.00 | 0.00 | 77 | 1003.7 |
| 20260505205740 | 14 | 223 | 12.9 | 32.2 | 0.00 | 0.00 | 0.00 | 77 | 1003.6 |
| 20260505205455 | 15 | 192 | 12.9 | 32.2 | 0.00 | 0.00 | 0.00 | 76 | 1003.5 |
| 20260505204727 | 15 | 176 | 11.3 | 29.0 | 0.00 | 0.00 | 0.00 | 75 | 1003.6 |
| 20260505204222 | 15 | 201 | 9.7 | 29.0 | 0.00 | 0.00 | 0.00 | 75 | 1003.8 |
| 20260505203715 | 15 | 219 | 9.7 | 27.4 | 0.00 | 0.00 | 0.00 | 75 | 1003.8 |
| 20260505203209 | 15 | 208 | 9.7 | 27.4 | 0.00 | 0.00 | 0.00 | 74 | 1003.7 |
| 20260505202703 | 15 | 245 | 9.7 | 25.7 | 0.00 | 0.00 | 0.00 | 75 | 1003.9 |
| 20260505202158 | 15 | 235 | 8.0 | 27.4 | 0.00 | 0.00 | 0.00 | 76 | 1003.8 |
| 20260505201652 | 15 | 191 | 9.7 | 27.4 | 0.00 | 0.00 | 0.00 | 76 | 1003.7 |
| 20260505201145 | 15 | 250 | 11.3 | 25.7 | 0.00 | 0.00 | 0.00 | 75 | 1003.9 |
| 20260505200903 | 15 | 274 | 11.3 | 32.2 | 0.00 | 0.00 | 0.00 | 74 | 1004.0 |
| 20260505200134 | 15 | 194 | 9.7 | 43.5 | 0.00 | 0.00 | 0.00 | 74 | 1003.9 |
| 20260505195627 | 15 | 200 | 11.3 | 43.5 | 0.00 | 0.00 | 0.00 | 74 | 1004.0 |
| 20260505195349 | 15 | 163 | 9.7 | 25.7 | 0.00 | 0.00 | 0.00 | 75 | 1004.0 |
| 20260505194617 | 15 | 177 | 9.7 | 20.9 | 0.00 | 0.00 | 0.00 | 76 | 1004.2 |
| 20260505194109 | 15 | 192 | 9.7 | 25.7 | 0.00 | 0.00 | 0.00 | 77 | 1004.3 |
| 20260505193605 | 15 | 205 | 12.9 | 25.7 | 0.00 | 0.00 | 0.00 | 77 | 1004.4 |
| 20260505193058 | 15 | 267 | 11.3 | 25.7 | 0.00 | 0.00 | 0.00 | 78 | 1004.5 |
| 20260505192551 | 14 | 266 | 9.7 | 24.1 | 0.00 | 0.00 | 0.00 | 78 | 1004.5 |
| 20260505192046 | 14 | 201 | 9.7 | 32.2 | 0.00 | 0.00 | 0.00 | 78 | 1004.6 |
| 20260505191541 | 14 | 188 | 9.7 | 27.4 | 0.00 | 0.00 | 0.00 | 78 | 1004.8 |
| 20260505191033 | 15 | 178 | 9.7 | 27.4 | 0.00 | 0.00 | 0.00 | 77 | 1004.9 |
| 20260505190746 | 15 | 265 | 11.3 | 24.1 | 0.00 | 0.00 | 0.00 | 77 | 1005.0 |
| 20260505190025 | 15 | 247 | 14.5 | 29.0 | 0.00 | 0.00 | 0.00 | 78 | 1005.1 |
| 20260505185526 | 15 | 248 | 14.5 | 32.2 | 0.00 | 0.00 | 0.00 | 78 | 1005.1 |
| 20260505185246 | 15 | 196 | 14.5 | 37.0 | 0.00 | 0.00 | 0.00 | 78 | 1005.2 |
| 20260505184525 | 15 | 184 | 16.1 | 37.0 | 0.00 | 0.00 | 0.00 | 76 | 1005.3 |
| 20260505184512 | 15 | 196 | 14.5 | 32.2 | 0.00 | 0.00 | 0.00 | 77 | 1005.2 |
| 20260505183525 | 15 | 160 | 12.9 | 30.6 | 0.00 | 0.00 | 0.00 | 77 | 1005.2 |
| 20260505183026 | 15 | 157 | 14.5 | 32.2 | 0.00 | 0.00 | 0.00 | 78 | 1005.2 |
| 20260505182746 | 14 | 169 | 14.5 | 32.2 | 0.00 | 0.00 | 0.00 | 78 | 1005.3 |